Cloud_Cover
100 100 100 100 36 100 71 99 100 100 100 94 100 100 100 94 100 68 84 96 74 49 90 65 85 100 100 76 5 0 0 0 0 13 50 6 0 0 0 0 5 32 49
85 56 100 100 100 100 100 100 100 100 100 100 100 100 100 41 100 100 63 99 47 78 100 100 100 100 100 3 5 0 0 0 0 4 30 1 0 0 8 0 5 100 97
17 14 56 100 100 99 100 100 12 100 100 39 100 100 100 100 100 92 100 100 40 100 100 100 100 96 43 5 0 0 0 0 24 69 19 0 4 4 0 4 5 21 100
0 7 5 62 100 100 100 100 94 100 94 93 98 100 100 100 100 100 100 100 100 100 100 100 100 84 3 0 3 0 0 5 5 5 0 6 96 5 0 54 14 25 82
0 0 34 47 3 93 100 100 100 100 100 100 100 100 100 100 100 100 100 100 100 100 100 100 100 13 1 1 0 0 0 4 5 0 0 84 95 21 6 5 6 43 60
0 0 0 4 5 5 18 100 100 100 100 100 100 100 100 100 100 100 100 100 100 100 100 100 89 0 6 15 0 5 5 5 0 0 4 57 20 5 20 9 76 93 26
0 4 0 1 37 0 1 84 100 100 100 100 100 100 100 100 100 100 100 100 100 100 100 15 0 22 28 2 34 13 14 0 5 5 33 79 20 93 50 17 97 100 95
5 20 4 49 81 1 0 0 3 100 100 100 100 100 100 100 100 100 100 100 88 21 0 17 2 0 0 0 0 3 0 3 24 93 6 5 5 64 21 25 56 100 100
11 3 9 98 5 1 0 0 0 81 100 100 100 100 100 100 100 100 100 4 0 2 4 0 0 0 0 1 0 3 4 12 86 95 88 7 99 100 10 21 64 98 100
7 8 94 98 5 5 5 0 0 2 100 100 100 100 100 100 100 100 2 2 7 3 0 0 25 2 90 100 4 4 11 99 98 100 90 36 18 43 10 8 33 59 99
78 84 5 2 5 2 1 2 4 12 17 100 100 100 100 100 97 95 53 5 5 0 15 2 12 100 100 100 96 0 78 100 100 100 96 35 8 6 13 6 92 100 92
96 100 100 100 3 1 1 0 0 0 0 1 18 100 100 98 92 100 18 99 25 11 63 2 66 100 100 100 76 100 100 81 100 100 100 100 94 6 5 9 11 34 46
100 100 100 100 43 3 1 0 0 0 0 0 56 99 100 100 100 100 100 36 40 24 2 66 99 100 100 89 100 100 98 38 89 98 100 100 100 100 25 12 5 69 91
94 27 78 75 0 2 0 0 0 5 5 34 100 100 100 100 100 55 24 12 88 74 74 66 31 51 51 100 97 40 53 52 85 100 100 100 100 85 5 5 13 32 31
98 81 88 31 8 0 12 25 42 98 100 100 98 99 86 44 43 40 93 79 0 31 0 0 5 5 46 48 49 20 61 100 99 100 100 99 60 73 42 5 93 48 5
100 85 100 100 100 100 100 100 100 100 100 61 64 31 61 11 20 58 37 0 0 0 0 5 5 28 25 88 5 33 79 33 77 100 100 98 100 100 100 85 14 8 44
100 100 100 100 100 100 100 100 100 100 100 100 100 100 99 100 100 100 41 36 94 39 5 5 37 61 70 26 10 27 88 99 96 100 100 100 100 100 100 92 31 66 51
100 100 100 100 100 100 100 100 100 100 100 100 100 100 100 100 100 100 100 36 9 30 70 51 47 17 76 72 7 96 99 80 99 100 100 100 100 100 69 47 80 100 74
100 100 100 100 100 100 100 100 99 80 97 100 100 100 100 100 100 100 80 5 7 12 79 96 67 7 38 48 99 100 84 99 19 100 100 87 98 18 59 6 90 78 52
100 100 94 100 100 100 87 100 72 68 99 100 100 100 100 62 71 100 97 33 50 11 57 73 70 84 61 22 99 100 100 86 55 81 36 16 40 67 26 72 48 60 53
99 89 77 100 78 89 77 71 20 98 100 100 100 100 98 82 100 86 88 100 100 100 100 100 84 100 100 100 100 94 93 78 21 62 5 100 100 62 41 68 100 63 82
100 100 65 86 8 72 19 32 62 98 100 100 100 100 100 100 100 99 73 100 100 100 100 100 96 93 84 86 58 23 36 42 57 26 25 47 94 98 100 100 100 100 100
62 94 100 65 72 100 96 48 49 100 100 100 100 100 100 100 96 100 100 100 100 100 99 85 91 66 79 91 45 10 31 28 83 66 82 59 90 44 27 49 59 42 4
96 18 0 1 81 57 92 100 100 100 100 100 100 100 100 100 100 100 100 100 100 100 96 59 76 93 64 79 61 57 48 44 42 96 70 42 5 5 1 1 4 5 7
3 38 96 71 88 67 100 100 100 100 100 100 94 100 100 100 100 100 100 100 100 100 50 67 36 100 100 75 65 94 41 6 45 33 2 1 3 8 12 20 26 16 27
100 100 100 100 100 99 100 100 86 81 100 100 100 100 100 100 100 100 96 96 85 92 83 90 100 100 100 100 100 93 90 30 5 5 5 21 62 54 50 44 56 48 89